This is the latest recevied weather packets stored in our database for station/object K5UTC. If no packets are shown the sender has not sent any weather packets the latest 10 day(s).
| Time | Temp. | Humidity | Pressure | Rain* | Wind** | Luminosity | Snow |
|---|---|---|---|---|---|---|---|
| 1778158366 | 14.44° C | 95% | 1012.9 hPa | 0 mm | - | 148 W/m² | - |
| 1778158063 | 14.44° C | 96% | 1012.8 hPa | 0 mm | - | 147 W/m² | - |
| 1778157760 | 14.44° C | 97% | 1012.8 hPa | 0 mm | - | 126 W/m² | - |
| 1778157458 | 13.89° C | 97% | 1012.6 hPa | 0 mm | - | 105 W/m² | - |
| 1778157155 | 13.89° C | 97% | 1012.7 hPa | 0 mm | - | 93 W/m² | - |
| 1778156850 | 13.89° C | 98% | 1012.6 hPa | 0 mm | - | 93 W/m² | - |
| 1778156547 | 13.89° C | 98% | 1012.8 hPa | 0 mm | - | 87 W/m² | - |
| 1778156242 | 13.89° C | 98% | 1012.7 hPa | 0 mm | - | 76 W/m² | - |
| 1778155938 | 13.89° C | 98% | 1012.7 hPa | 0 mm | - | 64 W/m² | - |
| 1778155635 | 13.89° C | 98% | 1012.4 hPa | 0 mm | - | 64 W/m² | - |
| 1778155332 | 13.89° C | 98% | 1012.5 hPa | 0 mm | - | 58 W/m² | - |
| 1778155028 | 13.89° C | 98% | 1012.3 hPa | 0 mm | - | 73 W/m² | - |
| 1778154724 | 13.89° C | 98% | 1012.4 hPa | 0 mm | - | 58 W/m² | - |
| 1778154419 | 13.89° C | 98% | 1012.5 hPa | 0 mm | - | 44 W/m² | - |
| 1778154117 | 13.89° C | 98% | 1012.4 hPa | 0 mm | - | 34 W/m² | - |
| 1778153814 | 13.89° C | 98% | 1012 hPa | 0 mm | - | 31 W/m² | - |
| 1778153511 | 13.89° C | 98% | 1012.2 hPa | 0 mm | - | 25 W/m² | - |
| 1778153209 | 13.89° C | 98% | 1011.9 hPa | 0 mm | - | 26 W/m² | - |
| 1778152905 | 13.89° C | 98% | 1011.8 hPa | 0 mm | - | 19 W/m² | - |
| 1778152603 | 13.89° C | 98% | 1011.7 hPa | 0 mm | - | 13 W/m² | - |
| 1778152299 | 13.89° C | 98% | 1011.7 hPa | 0 mm | - | 11 W/m² | - |
| 1778151995 | 13.89° C | 98% | 1011.9 hPa | 0 mm | - | 8 W/m² | - |
| 1778151692 | 13.89° C | 98% | 1012 hPa | 0 mm | - | 5 W/m² | - |
| 1778151389 | 13.89° C | 98% | 1011.7 hPa | 0 mm | - | 3 W/m² | - |
| 1778151085 | 13.89° C | 98% | 1011.6 hPa | 0 mm | - | 1 W/m² | - |
* Rain latest hour (hover to see other rain measurements)
** Current wind speed in m/s (hover to see current wind gust speed)